• en France
  • Liste des pays
  • À 7 jours
  • Température de l'eau
  • Carte satellitaire
  • Carte météo
  • Widgets météo
  • user-avatar
    Se connecter

    Météo par heure à Belyai

    Ce jour, 22 Septembre, Samedi

    Heure Température Précipitation Vent Pression Humidité
    00:00 +19°C° 0 mm 4 m/s 750 mmHg 75%
    01:00 +19°C° 0 mm 5 m/s 750 mmHg 73%
    02:00 +19°C° 0 mm 5 m/s 749 mmHg 71%
    03:00 +19°C° 0 mm 5 m/s 748 mmHg 70%
    04:00 +19°C° 0 mm 5 m/s 748 mmHg 70%
    05:00 +19°C° 0 mm 5 m/s 747 mmHg 69%
    06:00 +19°C° 0 mm 6 m/s 747 mmHg 69%
    07:00 +19°C° 0 mm 6 m/s 747 mmHg 70%
    08:00 +19°C° 0 mm 6 m/s 747 mmHg 70%
    09:00 +17°C° 0.4 mm 6 m/s 747 mmHg 74%
    10:00 +17°C° 0.4 mm 6 m/s 747 mmHg 77%
    11:00 +16°C° 0.4 mm 6 m/s 747 mmHg 81%
    12:00 +15°C° 0.7 mm 5 m/s 748 mmHg 84%
    13:00 +13°C° 0.7 mm 4 m/s 748 mmHg 87%
    14:00 +12°C° 0.7 mm 4 m/s 749 mmHg 90%
    15:00 +12°C° 0.3 mm 4 m/s 749 mmHg 90%
    16:00 +12°C° 0.3 mm 4 m/s 749 mmHg 89%
    17:00 +12°C° 0.3 mm 4 m/s 749 mmHg 89%
    18:00 +12°C° 0.2 mm 4 m/s 749 mmHg 88%
    19:00 +11°C° 0.2 mm 4 m/s 749 mmHg 88%
    20:00 +11°C° 0.2 mm 4 m/s 749 mmHg 88%
    21:00 +11°C° 0.1 mm 4 m/s 749 mmHg 88%
    22:00 +10°C° 0.1 mm 3 m/s 749 mmHg 89%
    23:00 +10°C° 0.1 mm 3 m/s 749 mmHg 90%

    Demain, 23 Septembre, Dimanche

    Heure Température Précipitation Vent Pression Humidité
    00:00 +9°C° 0 mm 3 m/s 749 mmHg 91%
    01:00 +9°C° 0 mm 3 m/s 749 mmHg 92%
    02:00 +9°C° 0 mm 3 m/s 749 mmHg 93%
    03:00 +8°C° 0 mm 3 m/s 749 mmHg 93%
    04:00 +7°C° 0 mm 4 m/s 748 mmHg 93%
    05:00 +7°C° 0 mm 4 m/s 748 mmHg 94%
    06:00 +8°C° 0 mm 4 m/s 748 mmHg 91%
    07:00 +8°C° 0 mm 4 m/s 748 mmHg 88%
    08:00 +9°C° 0 mm 5 m/s 748 mmHg 85%
    09:00 +10°C° 0 mm 5 m/s 747 mmHg 81%
    10:00 +10°C° 0 mm 5 m/s 747 mmHg 76%
    11:00 +12°C° 0 mm 5 m/s 747 mmHg 72%
    12:00 +12°C° 0.2 mm 5 m/s 747 mmHg 71%
    13:00 +13°C° 0.2 mm 6 m/s 747 mmHg 70%
    14:00 +13°C° 0.2 mm 6 m/s 747 mmHg 69%
    15:00 +12°C° 0.2 mm 5 m/s 747 mmHg 72%
    16:00 +12°C° 0.2 mm 5 m/s 747 mmHg 76%
    17:00 +11°C° 0.2 mm 4 m/s 747 mmHg 79%
    18:00 +11°C° 0.4 mm 4 m/s 747 mmHg 83%
    19:00 +10°C° 0.4 mm 4 m/s 747 mmHg 86%
    20:00 +9°C° 0.4 mm 3 m/s 747 mmHg 90%
    21:00 +9°C° 0.1 mm 3 m/s 747 mmHg 91%
    22:00 +7°C° 0.1 mm 4 m/s 747 mmHg 92%
    23:00 +7°C° 0.1 mm 4 m/s 747 mmHg 93%

    Après-demain, 24 Septembre, Lundi

    Heure Température Précipitation Vent Pression Humidité
    00:00 +8°C° 0 mm 3 m/s 747 mmHg 94%
    01:00 +7°C° 0 mm 3 m/s 747 mmHg 95%
    02:00 +7°C° 0 mm 3 m/s 746 mmHg 96%
    03:00 +7°C° 0 mm 3 m/s 746 mmHg 96%
    04:00 +7°C° 0 mm 2 m/s 746 mmHg 97%
    05:00 +6°C° 0 mm 2 m/s 746 mmHg 97%
    06:00 +7°C° 0 mm 2 m/s 746 mmHg 96%
    07:00 +8°C° 0 mm 1 m/s 746 mmHg 94%
    08:00 +9°C° 0 mm 1 m/s 746 mmHg 93%
    09:00 +10°C° 0 mm 1 m/s 746 mmHg 90%
    10:00 +11°C° 0 mm 1 m/s 746 mmHg 87%
    11:00 +11°C° 0 mm 1 m/s 746 mmHg 84%
    12:00 +10°C° 0.3 mm 2 m/s 746 mmHg 83%
    13:00 +12°C° 0.3 mm 2 m/s 746 mmHg 83%
    14:00 +11°C° 0.3 mm 3 m/s 746 mmHg 82%
    15:00 +10°C° 0.2 mm 3 m/s 746 mmHg 83%
    16:00 +10°C° 0.2 mm 3 m/s 746 mmHg 83%
    17:00 +10°C° 0.2 mm 3 m/s 746 mmHg 84%
    18:00 +8°C° 0.1 mm 4 m/s 746 mmHg 84%
    19:00 +7°C° 0.1 mm 4 m/s 747 mmHg 83%
    20:00 +7°C° 0.1 mm 4 m/s 747 mmHg 83%
    21:00 +6°C° 0 mm 4 m/s 747 mmHg 83%
    22:00 +6°C° 0 mm 4 m/s 748 mmHg 83%
    23:00 +5°C° 0 mm 4 m/s 748 mmHg 83%

    25 Septembre, Mardi

    Heure Température Précipitation Vent Pression Humidité
    00:00 +5°C° 0 mm 4 m/s 748 mmHg 83%
    01:00 +5°C° 0 mm 4 m/s 749 mmHg 83%
    02:00 +5°C° 0 mm 4 m/s 749 mmHg 83%
    03:00 +4°C° 0 mm 4 m/s 750 mmHg 83%
    04:00 +3°C° 0 mm 5 m/s 750 mmHg 83%
    05:00 +3°C° 0 mm 5 m/s 751 mmHg 83%
    06:00 +5°C° 0 mm 5 m/s 751 mmHg 80%
    07:00 +4°C° 0 mm 6 m/s 752 mmHg 77%
    08:00 +5°C° 0 mm 6 m/s 752 mmHg 75%
    09:00 +7°C° 0.1 mm 6 m/s 753 mmHg 70%
    10:00 +6°C° 0.1 mm 7 m/s 753 mmHg 65%
    11:00 +8°C° 0.1 mm 7 m/s 754 mmHg 60%
    12:00 +8°C° 0.1 mm 7 m/s 754 mmHg 56%
    13:00 +9°C° 0.1 mm 7 m/s 755 mmHg 52%
    14:00 +9°C° 0.1 mm 7 m/s 755 mmHg 47%
    15:00 +8°C° 0 mm 6 m/s 756 mmHg 49%
    16:00 +8°C° 0 mm 5 m/s 756 mmHg 51%
    17:00 +7°C° 0 mm 4 m/s 757 mmHg 54%
    18:00 +6°C° 0 mm 4 m/s 757 mmHg 58%
    19:00 +5°C° 0 mm 3 m/s 758 mmHg 63%
    20:00 +5°C° 0 mm 3 m/s 758 mmHg 67%
    21:00 +5°C° 0 mm 3 m/s 758 mmHg 67%
    22:00 +5°C° 0 mm 4 m/s 758 mmHg 68%
    23:00 +6°C° 0 mm 4 m/s 757 mmHg 69%

    26 Septembre, Mercredi

    Heure Température Précipitation Vent Pression Humidité
    00:00 +6°C° 0.2 mm 4 m/s 757 mmHg 73%
    01:00 +6°C° 0.2 mm 4 m/s 756 mmHg 78%
    02:00 +6°C° 0.2 mm 4 m/s 756 mmHg 82%
    03:00 +6°C° 0.1 mm 4 m/s 756 mmHg 85%
    04:00 +6°C° 0.1 mm 4 m/s 755 mmHg 87%
    05:00 +6°C° 0.1 mm 4 m/s 755 mmHg 90%
    06:00 +7°C° 1 mm 4 m/s 755 mmHg 91%
    07:00 +7°C° 1 mm 4 m/s 754 mmHg 92%
    08:00 +8°C° 1 mm 5 m/s 754 mmHg 92%
    09:00 +8°C° 0.8 mm 5 m/s 753 mmHg 90%
    10:00 +9°C° 0.8 mm 5 m/s 753 mmHg 88%
    11:00 +10°C° 0.8 mm 5 m/s 753 mmHg 86%
    12:00 +9°C° 0.5 mm 5 m/s 752 mmHg 86%
    13:00 +9°C° 0.5 mm 5 m/s 752 mmHg 87%
    14:00 +9°C° 0.5 mm 5 m/s 751 mmHg 87%
    15:00 +9°C° 0.6 mm 5 m/s 750 mmHg 89%
    16:00 +9°C° 0.6 mm 5 m/s 750 mmHg 90%
    17:00 +8°C° 0.6 mm 5 m/s 749 mmHg 91%
    18:00 +9°C° 0.8 mm 6 m/s 748 mmHg 91%
    19:00 +9°C° 0.8 mm 6 m/s 747 mmHg 91%
    20:00 +9°C° 0.8 mm 7 m/s 746 mmHg 91%
    21:00 +10°C° 0.6 mm 7 m/s 745 mmHg 91%
    22:00 +10°C° 0.6 mm 7 m/s 744 mmHg 91%
    23:00 +11°C° 0.6 mm 7 m/s 744 mmHg 91%

    27 Septembre, Jeudi

    Heure Température Précipitation Vent Pression Humidité
    00:00 +11°C° 0.3 mm 6 m/s 744 mmHg 91%
    01:00 +11°C° 0.3 mm 6 m/s 744 mmHg 91%
    02:00 +11°C° 0.3 mm 6 m/s 743 mmHg 91%
    03:00 +12°C° 0.2 mm 5 m/s 744 mmHg 91%
    04:00 +10°C° 0.2 mm 5 m/s 744 mmHg 91%
    05:00 +11°C° 0.2 mm 4 m/s 744 mmHg 91%
    06:00 +10°C° 0 mm 4 m/s 744 mmHg 90%
    07:00 +10°C° 0 mm 3 m/s 744 mmHg 89%
    08:00 +10°C° 0 mm 3 m/s 744 mmHg 89%
    09:00 +10°C° 0.5 mm 3 m/s 744 mmHg 87%
    10:00 +11°C° 0.5 mm 4 m/s 743 mmHg 86%
    11:00 +11°C° 0.5 mm 4 m/s 743 mmHg 85%
    12:00 +12°C° 0.5 mm 5 m/s 742 mmHg 83%
    13:00 +12°C° 0.5 mm 5 m/s 742 mmHg 81%
    14:00 +12°C° 0.5 mm 5 m/s 742 mmHg 79%
    15:00 +12°C° 0.1 mm 5 m/s 741 mmHg 80%
    16:00 +10°C° 0.1 mm 5 m/s 741 mmHg 81%
    17:00 +11°C° 0.1 mm 4 m/s 741 mmHg 83%
    18:00 +10°C° 0.4 mm 4 m/s 741 mmHg 85%
    19:00 +10°C° 0.4 mm 4 m/s 741 mmHg 87%
    20:00 +8°C° 0.4 mm 4 m/s 741 mmHg 89%
    21:00 +8°C° 0.4 mm 4 m/s 740 mmHg 90%
    22:00 +7°C° 0.4 mm 4 m/s 740 mmHg 90%
    23:00 +7°C° 0.4 mm 4 m/s 740 mmHg 90%
    Voir plus